Cook, MN

10:25 PM CDT on May 24, 2018 (GMT -0500)
Cook Municipal

Weather History for KCQM - December, 2013

Change the Weather History Date:

Wednesday, December 18, 2013

  Actual Average Record
Temperature  
Mean Temperature 2 °F -  
Max Temperature 19 °F 18 °F 41 °F (1997)
Min Temperature -14 °F 3 °F -27 °F (2008)
Degree Days  
Heating Degree Days 62    
Moisture  
Dew Point -1 °F    
Average Humidity 77    
Maximum Humidity 92    
Minimum Humidity 58    
Precipitation  
Precipitation 0.00 in - - ()
Sea Level Pressure  
Sea Level Pressure 29.72 in    
Wind  
Wind Speed 2 mph (SE)    
Max Wind Speed 13 mph    
Max Gust Speed 21 mph    
Visibility 10 miles    
Events      
Averages and records for this station are not official NWS values.
T = Trace of Precipitation, MM = Missing Value Source: NWS Daily Summary

Daily Weather History Graph

Daily Weather History Graph

Search for Another Location

Airport or City:

Astronomy

Dec. 18, 2013 Rise Set
Actual Time 7:55 AM CST 4:19 PM CST
Civil Twilight 7:19 AM CST 4:55 PM CST
Nautical Twilight 6:39 AM CST 5:35 PM CST
Astronomical Twilight 6:01 AM CST 6:13 PM CST
Moon 5:58 PM CST (12/18) 8:29 AM CST (12/18)
Length of Visible Light 9h 36m
Length of Day
8h 24m
Full, 98% of the Moon is Illuminated
Dec 18
Full
Dec 25
Last Quarter
Jan 1
New
Jan 7
First Quarter
Jan 15
Full

Hourly Weather History & Observations

Time (CST) Temp. Windchill Dew Point Humidity Pressure Visibility Wind Dir Wind Speed Gust Speed Precip Events Conditions
12:16 AM -11.2 °F - -14.8 °F 84% 29.95 in 10.0 mi Calm Calm - N/A   Clear
12:37 AM -13.0 °F - -16.6 °F 84% 29.94 in 10.0 mi Calm Calm - N/A   Clear
12:57 AM -11.2 °F - -14.8 °F 84% 29.93 in 10.0 mi Calm Calm - N/A   Clear
1:16 AM -11.2 °F - -16.6 °F 77% 29.92 in 10.0 mi Calm Calm - N/A   Clear
1:36 AM -13.0 °F - -16.6 °F 84% 29.93 in 10.0 mi Calm Calm - N/A   Clear
1:57 AM -14.8 °F - -18.4 °F 84% 29.92 in 10.0 mi Calm Calm - N/A   Clear
2:16 AM -14.8 °F - -18.4 °F 84% 29.91 in 10.0 mi Calm Calm - N/A   Clear
2:36 AM -14.8 °F - -18.4 °F 84% 29.91 in 10.0 mi Calm Calm - N/A   Clear
2:57 AM -14.8 °F - -18.4 °F 84% 29.90 in 10.0 mi Calm Calm - N/A   Clear
3:16 AM -14.8 °F - -18.4 °F 84% 29.89 in 10.0 mi Calm Calm - N/A   Clear
3:36 AM -14.8 °F - -18.4 °F 84% 29.89 in 10.0 mi Calm Calm - N/A   Clear
3:56 AM -11.2 °F - -16.6 °F 77% 29.88 in 10.0 mi Calm Calm - N/A   Clear
4:16 AM -11.2 °F - -16.6 °F 77% 29.86 in 10.0 mi Calm Calm - N/A   Clear
4:37 AM -11.2 °F - -16.6 °F 77% 29.85 in 10.0 mi Calm Calm - N/A   Clear
4:56 AM -11.2 °F - -16.6 °F 77% 29.84 in 10.0 mi Calm Calm - N/A   Clear
5:17 AM -11.2 °F - -16.6 °F 77% 29.84 in 10.0 mi Calm Calm - N/A   Scattered Clouds
5:37 AM -11.2 °F - -16.6 °F 77% 29.84 in 10.0 mi Calm Calm - N/A   Mostly Cloudy
5:56 AM -5.8 °F -14.5 °F -9.4 °F 84% - 10.0 mi SSE 3.5 mph - N/A   Overcast
6:17 AM -2.2 °F -12.5 °F -7.6 °F 78% 29.80 in 10.0 mi SE 4.6 mph - N/A   Overcast
6:37 AM -0.4 °F -8.3 °F -5.8 °F 78% 29.79 in 10.0 mi SE 3.5 mph - N/A   Overcast
6:56 AM -0.4 °F - -4.0 °F 85% 29.78 in 10.0 mi Calm Calm - N/A   Overcast
7:17 AM 1.4 °F - -4.0 °F 78% 29.77 in 10.0 mi Calm Calm - N/A   Overcast
7:37 AM 1.4 °F - -2.2 °F 85% 29.76 in 10.0 mi Calm Calm - N/A   Overcast
7:56 AM 1.4 °F - -2.2 °F 85% 29.75 in 10.0 mi Calm Calm - N/A   Overcast
8:17 AM 3.2 °F -6.2 °F -2.2 °F 78% 29.73 in 10.0 mi ESE 4.6 mph - N/A   Overcast
8:37 AM 3.2 °F -4.2 °F -2.2 °F 78% 29.72 in 10.0 mi East 3.5 mph - N/A   Mostly Cloudy
8:56 AM 3.2 °F -4.2 °F -2.2 °F 78% 29.72 in 10.0 mi SE 3.5 mph - N/A   Mostly Cloudy
9:17 AM 5.0 °F - -2.2 °F 72% 29.71 in 10.0 mi Calm Calm - N/A   Scattered Clouds
9:37 AM 5.0 °F -2.1 °F -2.2 °F 72% 29.71 in 10.0 mi East 3.5 mph - N/A   Mostly Cloudy
9:56 AM 6.8 °F -2.0 °F -0.4 °F 72% 29.70 in 10.0 mi East 4.6 mph - N/A   Scattered Clouds
10:17 AM 6.8 °F -0.1 °F -0.4 °F 72% 29.70 in 10.0 mi East 3.5 mph - N/A   Scattered Clouds
10:37 AM 10.4 °F -0.4 °F -0.4 °F 62% 29.68 in 10.0 mi ESE 6.9 mph - N/A   Scattered Clouds
10:56 AM 10.4 °F -0.4 °F 1.4 °F 67% 29.66 in 10.0 mi ESE 6.9 mph - N/A   Scattered Clouds
11:17 AM 12.2 °F 2.9 °F 1.4 °F 62% 29.65 in 10.0 mi ESE 5.8 mph - N/A   Clear
11:36 AM 15.8 °F 10.2 °F 3.2 °F 58% 29.64 in 10.0 mi SE 3.5 mph - N/A   Clear
11:57 AM 15.8 °F 4.2 °F 3.2 °F 58% 29.63 in 10.0 mi SE 9.2 mph - N/A   Clear
12:17 PM 15.8 °F 4.2 °F 5.0 °F 62% 29.61 in 10.0 mi SE 9.2 mph - N/A   Clear
12:36 PM 17.6 °F 7.3 °F 6.8 °F 63% 29.60 in 10.0 mi SE 8.1 mph - N/A   Clear
12:57 PM 19.4 °F 9.5 °F 6.8 °F 58% 29.60 in 10.0 mi South 8.1 mph - N/A   Clear
1:17 PM 19.4 °F 10.4 °F 6.8 °F 58% 29.61 in 10.0 mi SSW 6.9 mph - N/A   Clear
1:36 PM 19.4 °F 10.4 °F 6.8 °F 58% 29.60 in 10.0 mi South 6.9 mph - N/A   Clear
1:57 PM 19.4 °F 11.5 °F 8.6 °F 63% 29.59 in 10.0 mi South 5.8 mph - N/A   Clear
2:16 PM 19.4 °F 11.5 °F 8.6 °F 63% 29.58 in 10.0 mi South 5.8 mph - N/A   Clear
2:36 PM 19.4 °F 11.5 °F 8.6 °F 63% 29.58 in 10.0 mi SSE 5.8 mph - N/A   Clear
2:57 PM 19.4 °F 11.5 °F 8.6 °F 63% 29.58 in 10.0 mi SSE 5.8 mph - N/A   Clear
3:16 PM 19.4 °F 11.5 °F 8.6 °F 63% 29.58 in 10.0 mi SSE 5.8 mph - N/A   Clear
3:36 PM 19.4 °F - 8.6 °F 63% 29.58 in 10.0 mi Calm Calm - N/A   Scattered Clouds
3:57 PM 19.4 °F - 8.6 °F 63% 29.58 in 10.0 mi Calm Calm - N/A   Scattered Clouds
4:17 PM 17.6 °F - 10.4 °F 73% 29.60 in 10.0 mi Calm Calm - N/A   Mostly Cloudy
4:37 PM 17.6 °F - 10.4 °F 73% 29.60 in 10.0 mi Calm Calm - N/A   Overcast
4:56 PM 15.8 °F - 8.6 °F 73% 29.62 in 10.0 mi Calm Calm - N/A   Overcast
5:17 PM 14.0 °F - 8.6 °F 79% 29.63 in 10.0 mi Calm Calm - N/A   Overcast
5:37 PM 12.2 °F - 8.6 °F 85% 29.62 in 10.0 mi Calm Calm - N/A   Mostly Cloudy
5:56 PM 12.2 °F - 8.6 °F 85% 29.63 in 10.0 mi Calm Calm - N/A   Mostly Cloudy
6:17 PM 12.2 °F - 8.6 °F 85% 29.63 in 10.0 mi Calm Calm - N/A   Overcast
6:36 PM 10.4 °F - 6.8 °F 85% 29.64 in 10.0 mi Calm Calm - N/A   Overcast
6:56 PM 10.4 °F - 6.8 °F 85% 29.64 in 10.0 mi Calm Calm - N/A   Overcast
7:17 PM 10.4 °F - 6.8 °F 85% 29.65 in 10.0 mi Calm Calm - N/A   Overcast
7:36 PM 10.4 °F - 6.8 °F 85% 29.65 in 10.0 mi Calm Calm - N/A   Overcast
7:57 PM 8.6 °F - 6.8 °F 92% 29.65 in 10.0 mi Calm Calm - N/A   Scattered Clouds
8:17 PM 6.8 °F - 3.2 °F 85% 29.67 in 10.0 mi Calm Calm - N/A   Clear
8:36 PM 6.8 °F - 3.2 °F 85% 29.68 in 10.0 mi Calm Calm - N/A   Mostly Cloudy
8:57 PM 6.8 °F - 3.2 °F 85% 29.68 in 10.0 mi Calm Calm - N/A   Overcast
9:16 PM 6.8 °F - 3.2 °F 85% 29.69 in 10.0 mi Calm Calm - N/A   Overcast
9:37 PM 6.8 °F - 3.2 °F 85% 29.69 in 10.0 mi Calm Calm - N/A   Overcast
9:56 PM 6.8 °F - 3.2 °F 85% 29.70 in 10.0 mi Calm Calm - N/A   Overcast
10:16 PM 8.6 °F - 6.8 °F 92% 29.71 in 10.0 mi Calm Calm - N/A   Overcast
10:37 PM 14.0 °F 3.9 °F 10.4 °F 86% 29.74 in 10.0 mi NW 6.9 mph - N/A   Overcast
10:56 PM 14.0 °F -0.2 °F 8.6 °F 79% 29.75 in 10.0 mi NW 12.7 mph 16.1 mph N/A   Overcast
11:17 PM 12.2 °F -1.0 °F 6.8 °F 79% 29.77 in 10.0 mi NNW 10.4 mph 20.7 mph N/A   Scattered Clouds
11:37 PM 10.4 °F -0.4 °F 6.8 °F 85% 29.79 in 10.0 mi WNW 6.9 mph - N/A   Scattered Clouds
11:56 PM 10.4 °F 0.8 °F 6.8 °F 85% 29.80 in 10.0 mi NW 5.8 mph - N/A   Overcast